Flag for Germany Weather past 2 weeks in Dessau-Rosslau, Saxony-Anhalt, Germany

Now
54 °F

Sunny.


Feels Like: 54 °F
Forecast: 49 / 62 °F
Wind: 2 mph from North

Location: Leipzig-Schkeuditz

Current Time: May 29, 2015 at 9:05:51 AM

Latest Report: May 29, 2015 at 8:20 AM


Visibility: 10 mi

Pressure: 29.95 "Hg

Humidity: 77%

Dew point: 46 °F

Location of Dessau-RosslauLocation

Historic Weather in Dessau-Rosslau — Graph

°F

Dessau-Rosslau temperature yesterday

Maximum temperature yesterday: 68 °F (at 3:50 PM)
Minimum temperature yesterday: 45 °F (at 1:20 AM)
Average temperature yesterday: 56 °F

Past Weeks' High & Low Weather Summary

 TemperatureHumidityPressure
High72 °F (May 18, 3:20 PM)100% (May 15, 5:50 AM)30.33 "Hg (May 15, 5:50 AM)
Low39 °F (May 15, 4:50 AM)28% (May 19, 4:20 PM)29.62 "Hg (May 19, 1:50 AM)
Average55 °F64%30.03 "Hg
* Reported May 14 7:20 AM — May 29 7:50 AM, Dessau-Rosslau, Weather by CustomWeather, © 2015

Note: Actual official high and low records may vary slightly from our data, if they occured in-between our weather recording intervals... More about our weather records

Advertising

Dessau-Rosslau weather history for previous 24 hours

 ConditionsComfort  
Time TempWeatherWind HumidityBarometerVisibility
7:50 AM
Fri, May 29
54 °FSunny.3 mph82%29.95 "Hg10 mi
7:20 AM52 °FSunny.3 mph88%29.95 "Hg10 mi
6:50 AM50 °FSunny.5 mph94%29.95 "Hg10 mi
6:20 AM48 °FSunny.6 mph100%29.95 "Hg10 mi
5:50 AM48 °FClear.6 mph94%29.95 "Hg10 mi
5:20 AM48 °FClear.5 mph94%29.95 "Hg10 mi
4:50 AM48 °FPartly cloudy.6 mph94%29.92 "HgN/A
4:20 AM48 °FPartly cloudy.5 mph94%29.95 "HgN/A
3:50 AM50 °FClear.6 mph88%29.95 "Hg10 mi
3:20 AM50 °FClear.7 mph88%29.95 "Hg10 mi
2:50 AM50 °FClear.5 mph88%29.95 "Hg10 mi
2:20 AM50 °FClear.6 mph88%29.95 "Hg10 mi
1:50 AM50 °FClear.5 mph94%29.95 "Hg10 mi
1:20 AM52 °FPassing clouds.5 mph88%29.95 "HgN/A
12:50 AM52 °FPassing clouds.2 mph88%29.95 "HgN/A
12:20 AM52 °FPassing clouds.3 mph88%29.95 "HgN/A
11:50 PM
Thu, May 28
52 °FPassing clouds.2 mph82%29.95 "HgN/A
11:20 PM52 °FPartly cloudy.7 mph82%29.95 "HgN/A
10:50 PM54 °FPassing clouds.13 mph77%29.95 "HgN/A
10:20 PM54 °FPassing clouds.7 mph88%29.95 "HgN/A
9:50 PM55 °FSprinkles. Broken clouds.7 mph82%29.95 "HgN/A
9:20 PM57 °FSprinkles. Partly sunny.6 mph77%29.92 "HgN/A
8:50 PM57 °FLight rain. Clear.3 mph77%29.89 "HgN/A
8:20 PM59 °FLight rain. Partly sunny.8 mph72%29.89 "HgN/A
7:50 PM61 °FLight rain. Clear.14 mph63%29.89 "HgN/A
7:20 PM64 °FLight rain. Clear.9 mph49%29.89 "HgN/A
6:50 PM66 °FLight rain. Clear.12 mph43%29.89 "HgN/A
6:20 PM66 °FSunny.13 mph40%29.89 "Hg10 mi
5:50 PM66 °FSunny.14 mph40%29.89 "Hg10 mi
5:20 PM66 °FSunny.14 mph40%29.89 "Hg10 mi
4:50 PM68 °FSunny.17 mph38%29.89 "Hg10 mi
4:20 PM68 °FSunny.17 mph38%29.92 "Hg10 mi
3:50 PM68 °FSunny.20 mph40%29.92 "Hg10 mi
3:20 PM66 °FSunny.16 mph40%29.92 "Hg10 mi
2:50 PM66 °FSunny.17 mph40%29.92 "Hg10 mi
2:20 PM66 °FSunny.15 mph40%29.95 "Hg10 mi
1:50 PM64 °FSunny.15 mph43%29.95 "Hg10 mi
1:20 PM64 °FSunny.16 mph43%29.95 "Hg10 mi
12:50 PM63 °FSunny.15 mph42%29.98 "Hg10 mi
12:20 PM66 °FSunny.15 mph37%29.98 "Hg10 mi
11:50 AM64 °FSunny.14 mph43%30.01 "Hg10 mi
11:20 AM61 °FSunny.13 mph45%30.01 "Hg10 mi
10:50 AM59 °FSunny.13 mph48%30.01 "Hg10 mi
10:20 AM57 °FSunny.14 mph51%30.04 "Hg10 mi
9:50 AM57 °FSunny.14 mph51%30.04 "Hg10 mi
9:20 AM54 °FSunny.14 mph63%30.04 "Hg10 mi
Weather by CustomWeather, © 2015

See weather overviewHow to use our weather pages